Regional Weather Roundup
Issued by NWS Cleveland, OH

Home | Current Version | Previous Version | Graphics & Text | Print | Product List | Glossary On
Versions: 1 2 3 4 5 6 7 8 9 10 11 12 13 14 15 16 17 18 19 20 21 22 23 24 25 26 27 28 29 30 31 32 33 34 35 36 37 38 39 40 41 42 43 44 45 46 47 48 49 50
000
ASUS41 KCLE 031602
RWRCLE
OHIO REGIONAL WEATHER ROUNDUP
NATIONAL WEATHER SERVICE CLEVELAND, OH
1200 PM EDT FRI JUL 03 2015

NOTE: "FAIR" INDICATES FEW OR NO CLOUDS BELOW 12,000 FEET WITH NO
SIGNIFICANT WEATHER AND/OR OBSTRUCTIONS TO VISIBILITY.

OHZ001>008-015>018-024>027-034-035-043-044-031700-
   NORTHWEST OHIO

CITY           SKY/WX    TMP DP  RH WIND       PRES   REMARKS
DEFIANCE       MOSUNNY   70  56  61 SE9       29.97S
FINDLAY        MOSUNNY   71  55  56 VRB6      29.95S
TOLEDO EXPRESS PTSUNNY   71  57  61 NE7       29.97S
TOLEDO EXEC    MOSUNNY   71  56  58 NE7       29.97F
LIMA           CLOUDY    69  57  65 NE6       29.96S
$$

OHZ009>014-019>023-028>033-038-089-031700-
   NORTHEAST OHIO

CITY           SKY/WX    TMP DP  RH WIND       PRES   REMARKS
CLE-HOPKINS    MOSUNNY   73  53  49 N8        29.98S
CLE-LAKEFRONT  MOSUNNY   70  54  56 N12       29.96S
CUY CO. ARPT   PTSUNNY   73  52  46 E9        29.97F
LORAIN-ELYRIA  MOSUNNY   71  51  49 E5        29.97F
ASHTABULA      MOSUNNY   71  53  52 E9        29.99F
AKRON-CANTON   PTSUNNY   73  57  57 SE7       29.96F
WOOSTER        MOSUNNY   73  57  57 E8        29.97S
MANSFIELD      MOSUNNY   72  57  59 SE7       29.97S
YOUNGSTOWN     PTSUNNY   71  56  58 E5        29.98F
$$

OHZ042-051>053-060>062-070>072-077>081-031700-
  SOUTHWEST OHIO

CITY           SKY/WX    TMP DP  RH WIND       PRES   REMARKS
CINC-COVINGTON CLOUDY    73  65  75 NE7       29.90R
CINC-LUNKEN    PTSUNNY   75  66  73 NE6       29.89S
HAMILTON       CLOUDY    72  63  73 NE8       29.91S
DAYTON         PTSUNNY   73  61  65 E8        29.93F
WRIGHT-PAT AFB PTSUNNY   73  60  65 E9        29.92S
DAYTON GENERAL CLOUDY    70  61  73 E10       29.91S
WILMINGTON     CLOUDY    69  60  73 NE9       29.92R
$$

OHZ036-037-039>041-045>050-054>059-063>069-073>076-082>088-031700-
  CENTRAL AND SOUTHEAST OHIO

CITY           SKY/WX    TMP DP  RH WIND       PRES   REMARKS
COLUMBUS       CLOUDY    75  61  61 E7        29.92S
OSU AIRPORT    MOSUNNY   75  60  59 E8        29.93S
BOLTON FIELD   CLOUDY    73  61  64 E8        29.93R
RICKENBACK AFB NOT AVBL
NEWARK         PTSUNNY   75  60  59 VRB7      29.93S
MARION         MOSUNNY   74  58  57 E5        29.95S
LANCASTER      PTSUNNY   75  62  64 E6        29.93R
ZANESVILLE     NOT AVBL
NEW PHILLY     PTSUNNY   74  59  59 E7        29.96S
$$


USA.gov is the U.S. government's official web portal to all federal, state and local government web resources and services.